When you browse on this site, cookies collect data to enhance your experience and personalize the content and advertising you see.
Visit our Privacy Policy to learn more. By continuing to use the site, you agree to this use of cookies and data.
  • în România
  • Lista ţărilor
  • Pe 7 zile
  • Temperatura apei
  • Hartă satelitară
  • Meteo pe hartă
  • Widget-uri
  • user-avatar
    Intrare

    Meteo pe oră la Huancavelica

    Astăzi, 19 Iulie, Vineri

    Timp Temperatura Precipitaţii Vânt Presiune Umiditate
    00:00 +4°C° 0 mm 1 m/s 464 mmHg 94%
    01:00 +4°C° 0 mm 1 m/s 464 mmHg 93%
    02:00 +5°C° 0 mm 1 m/s 464 mmHg 91%
    03:00 +5°C° 0 mm 1 m/s 464 mmHg 88%
    04:00 +5°C° 0 mm 1 m/s 463 mmHg 86%
    05:00 +5°C° 0 mm 1 m/s 464 mmHg 86%
    06:00 +5°C° 0 mm 1 m/s 464 mmHg 85%
    07:00 +5°C° 0 mm 1 m/s 464 mmHg 85%
    08:00 +5°C° 0.1 mm 2 m/s 465 mmHg 80%
    09:00 +6°C° 0.1 mm 2 m/s 465 mmHg 76%
    10:00 +6°C° 0.1 mm 2 m/s 466 mmHg 71%
    11:00 +7°C° 0.1 mm 2 m/s 466 mmHg 67%
    12:00 +8°C° 0.1 mm 2 m/s 467 mmHg 62%
    13:00 +9°C° 0.1 mm 2 m/s 467 mmHg 57%
    14:00 +9°C° 0.5 mm 2 m/s 466 mmHg 59%
    15:00 +9°C° 0.5 mm 3 m/s 466 mmHg 61%
    16:00 +9°C° 0.5 mm 3 m/s 466 mmHg 63%
    17:00 +7°C° 0.4 mm 2 m/s 465 mmHg 73%
    18:00 +5°C° 0.4 mm 2 m/s 464 mmHg 83%
    19:00 +5°C° 0.4 mm 1 m/s 463 mmHg 93%
    20:00 +5°C° 0.1 mm 1 m/s 463 mmHg 94%
    21:00 +4°C° 0.1 mm 1 m/s 463 mmHg 95%
    22:00 +4°C° 0.1 mm 1 m/s 463 mmHg 97%
    23:00 +4°C° 0 mm 1 m/s 463 mmHg 94%

    Mâine, 20 Iulie, Sâmbătă

    Timp Temperatura Precipitaţii Vânt Presiune Umiditate
    00:00 +4°C° 0 mm 1 m/s 463 mmHg 91%
    01:00 +5°C° 0 mm 1 m/s 463 mmHg 88%
    02:00 +5°C° 0 mm 1 m/s 463 mmHg 85%
    03:00 +5°C° 0 mm 1 m/s 463 mmHg 82%
    04:00 +5°C° 0 mm 1 m/s 463 mmHg 80%
    05:00 +4°C° 0 mm 1 m/s 463 mmHg 81%
    06:00 +4°C° 0 mm 1 m/s 463 mmHg 82%
    07:00 +4°C° 0 mm 1 m/s 463 mmHg 84%
    08:00 +5°C° 0 mm 1 m/s 464 mmHg 76%
    09:00 +6°C° 0 mm 2 m/s 465 mmHg 68%
    10:00 +7°C° 0 mm 2 m/s 466 mmHg 59%
    11:00 +8°C° 0 mm 3 m/s 467 mmHg 56%
    12:00 +9°C° 0 mm 3 m/s 467 mmHg 52%
    13:00 +10°C° 0 mm 3 m/s 467 mmHg 48%
    14:00 +10°C° 0.1 mm 3 m/s 466 mmHg 49%
    15:00 +10°C° 0.1 mm 3 m/s 466 mmHg 49%
    16:00 +10°C° 0.1 mm 3 m/s 466 mmHg 50%
    17:00 +8°C° 0.3 mm 2 m/s 465 mmHg 62%
    18:00 +7°C° 0.3 mm 1 m/s 464 mmHg 74%
    19:00 +5°C° 0.3 mm 1 m/s 463 mmHg 87%
    20:00 +5°C° 0.1 mm 1 m/s 463 mmHg 89%
    21:00 +3°C° 0.1 mm 0 m/s 463 mmHg 91%
    22:00 +3°C° 0.1 mm 0 m/s 463 mmHg 93%
    23:00 +3°C° 0 mm 0 m/s 462 mmHg 93%

    Poimâine, 21 Iulie, Duminică

    Timp Temperatura Precipitaţii Vânt Presiune Umiditate
    00:00 +2°C° 0 mm 0 m/s 462 mmHg 93%
    01:00 +2°C° 0 mm 0 m/s 462 mmHg 93%
    02:00 +2°C° 0 mm 0 m/s 462 mmHg 92%
    03:00 +2°C° 0 mm 0 m/s 462 mmHg 92%
    04:00 +2°C° 0 mm 0 m/s 461 mmHg 91%
    05:00 +2°C° 0 mm 0 m/s 462 mmHg 91%
    06:00 +2°C° 0 mm 0 m/s 462 mmHg 90%
    07:00 +2°C° 0 mm 0 m/s 463 mmHg 89%
    08:00 +5°C° 0 mm 1 m/s 464 mmHg 79%
    09:00 +6°C° 0 mm 2 m/s 465 mmHg 69%
    10:00 +8°C° 0 mm 2 m/s 466 mmHg 59%
    11:00 +9°C° 0 mm 2 m/s 467 mmHg 54%
    12:00 +10°C° 0 mm 3 m/s 467 mmHg 48%
    13:00 +11°C° 0 mm 3 m/s 467 mmHg 43%
    14:00 +11°C° 0.1 mm 3 m/s 467 mmHg 44%
    15:00 +11°C° 0.1 mm 3 m/s 467 mmHg 44%
    16:00 +10°C° 0.1 mm 3 m/s 466 mmHg 45%
    17:00 +8°C° 0.3 mm 2 m/s 465 mmHg 59%
    18:00 +6°C° 0.3 mm 2 m/s 464 mmHg 73%
    19:00 +5°C° 0.3 mm 1 m/s 463 mmHg 87%
    20:00 +5°C° 0 mm 1 m/s 463 mmHg 89%
    21:00 +4°C° 0 mm 1 m/s 463 mmHg 92%
    22:00 +3°C° 0 mm 0 m/s 463 mmHg 94%
    23:00 +3°C° 0 mm 0 m/s 463 mmHg 94%

    22 Iulie, Luni

    Timp Temperatura Precipitaţii Vânt Presiune Umiditate
    00:00 +3°C° 0 mm 0 m/s 463 mmHg 94%
    01:00 +3°C° 0 mm 0 m/s 463 mmHg 94%
    02:00 +3°C° 0 mm 0 m/s 463 mmHg 92%
    03:00 +3°C° 0 mm 0 m/s 463 mmHg 90%
    04:00 +3°C° 0 mm 0 m/s 462 mmHg 88%
    05:00 +3°C° 0 mm 0 m/s 463 mmHg 85%
    06:00 +4°C° 0 mm 1 m/s 463 mmHg 82%
    07:00 +5°C° 0 mm 1 m/s 464 mmHg 79%
    08:00 +6°C° 0 mm 1 m/s 464 mmHg 73%
    09:00 +7°C° 0 mm 1 m/s 465 mmHg 66%
    10:00 +7°C° 0 mm 2 m/s 466 mmHg 60%
    11:00 +8°C° 0 mm 2 m/s 466 mmHg 55%
    12:00 +9°C° 0 mm 2 m/s 467 mmHg 51%
    13:00 +10°C° 0 mm 3 m/s 467 mmHg 47%
    14:00 +10°C° 0.1 mm 3 m/s 467 mmHg 47%
    15:00 +10°C° 0.1 mm 3 m/s 467 mmHg 48%
    16:00 +10°C° 0.1 mm 3 m/s 466 mmHg 49%
    17:00 +8°C° 0.2 mm 2 m/s 465 mmHg 63%
    18:00 +7°C° 0.2 mm 2 m/s 464 mmHg 77%
    19:00 +6°C° 0.2 mm 1 m/s 463 mmHg 91%
    20:00 +5°C° 0.1 mm 1 m/s 464 mmHg 91%
    21:00 +5°C° 0.1 mm 1 m/s 464 mmHg 92%
    22:00 +5°C° 0.1 mm 1 m/s 464 mmHg 92%
    23:00 +5°C° 0 mm 1 m/s 464 mmHg 91%

    23 Iulie, Marţi

    Timp Temperatura Precipitaţii Vânt Presiune Umiditate
    00:00 +5°C° 0 mm 1 m/s 464 mmHg 89%
    01:00 +5°C° 0 mm 1 m/s 464 mmHg 88%
    02:00 +4°C° 0 mm 2 m/s 463 mmHg 88%
    03:00 +4°C° 0 mm 2 m/s 463 mmHg 89%
    04:00 +4°C° 0 mm 2 m/s 463 mmHg 90%
    05:00 +4°C° 0.1 mm 2 m/s 463 mmHg 90%
    06:00 +4°C° 0.1 mm 2 m/s 463 mmHg 90%
    07:00 +4°C° 0.1 mm 2 m/s 464 mmHg 90%
    08:00 +5°C° 0.1 mm 2 m/s 465 mmHg 80%
    09:00 +5°C° 0.1 mm 3 m/s 466 mmHg 71%
    10:00 +8°C° 0.1 mm 3 m/s 467 mmHg 61%
    11:00 +7°C° 0.2 mm 4 m/s 467 mmHg 59%
    12:00 +8°C° 0.2 mm 4 m/s 467 mmHg 56%
    13:00 +10°C° 0.2 mm 4 m/s 467 mmHg 54%
    14:00 +10°C° 0.5 mm 4 m/s 466 mmHg 55%
    15:00 +10°C° 0.5 mm 4 m/s 466 mmHg 56%
    16:00 +10°C° 0.5 mm 4 m/s 466 mmHg 58%
    17:00 +8°C° 0.4 mm 3 m/s 465 mmHg 68%
    18:00 +6°C° 0.4 mm 2 m/s 464 mmHg 78%
    19:00 +5°C° 0.4 mm 1 m/s 463 mmHg 88%
    20:00 +5°C° 0 mm 1 m/s 463 mmHg 88%
    21:00 +5°C° 0 mm 1 m/s 464 mmHg 89%
    22:00 +5°C° 0 mm 1 m/s 464 mmHg 89%
    23:00 +5°C° 0.1 mm 1 m/s 464 mmHg 90%

    24 Iulie, Miercuri

    Timp Temperatura Precipitaţii Vânt Presiune Umiditate
    00:00 +5°C° 0.1 mm 1 m/s 464 mmHg 90%
    01:00 +5°C° 0.1 mm 1 m/s 463 mmHg 91%
    02:00 +5°C° 0 mm 1 m/s 463 mmHg 91%
    03:00 +4°C° 0 mm 1 m/s 462 mmHg 91%
    04:00 +4°C° 0 mm 1 m/s 462 mmHg 92%
    05:00 +4°C° 0 mm 1 m/s 462 mmHg 91%
    06:00 +4°C° 0 mm 1 m/s 462 mmHg 91%
    07:00 +4°C° 0 mm 1 m/s 463 mmHg 90%
    08:00 +5°C° 0 mm 1 m/s 464 mmHg 78%
    09:00 +6°C° 0 mm 2 m/s 465 mmHg 66%
    10:00 +7°C° 0 mm 2 m/s 466 mmHg 55%
    11:00 +9°C° 0 mm 3 m/s 467 mmHg 49%
    12:00 +10°C° 0 mm 3 m/s 467 mmHg 43%
    13:00 +11°C° 0 mm 4 m/s 468 mmHg 37%
    14:00 +11°C° 0 mm 3 m/s 467 mmHg 40%
    15:00 +11°C° 0 mm 3 m/s 466 mmHg 43%
    16:00 +10°C° 0 mm 3 m/s 466 mmHg 45%
    17:00 +8°C° 0.1 mm 2 m/s 465 mmHg 56%
    18:00 +6°C° 0.1 mm 2 m/s 464 mmHg 66%
    19:00 +5°C° 0.1 mm 1 m/s 463 mmHg 76%
    20:00 +5°C° 0 mm 1 m/s 463 mmHg 79%
    21:00 +4°C° 0 mm 1 m/s 463 mmHg 82%
    22:00 +4°C° 0 mm 1 m/s 462 mmHg 85%
    23:00 +4°C° 0 mm 1 m/s 462 mmHg 84%
    Arată mai mult